• în România
  • Lista ţărilor
  • Pe 7 zile
  • Temperatura apei
  • Hartă satelitară
  • Meteo pe hartă
  • Widget-uri
  • user-avatar
    Intrare

    Meteo pe oră la Zaharkino

    Astăzi, 26 Septembrie, Miercuri

    Timp Temperatura Precipitaţii Vânt Presiune Umiditate
    00:00 +1°C° 0 mm 4 m/s 742 mmHg 80%
    01:00 +1°C° 0 mm 4 m/s 743 mmHg 80%
    02:00 +2°C° 0 mm 2 m/s 743 mmHg 83%
    03:00 +1°C° 0 mm 3 m/s 743 mmHg 84%
    04:00 0°C° 0 mm 3 m/s 744 mmHg 85%
    05:00 0°C° 0 mm 3 m/s 744 mmHg 86%
    06:00 +1°C° 0 mm 3 m/s 745 mmHg 83%
    07:00 +2°C° 0 mm 3 m/s 745 mmHg 81%
    08:00 +3°C° 0 mm 3 m/s 745 mmHg 79%
    09:00 +5°C° 0 mm 4 m/s 745 mmHg 74%
    10:00 +7°C° 0 mm 4 m/s 745 mmHg 68%
    11:00 +8°C° 0 mm 4 m/s 744 mmHg 62%
    12:00 +9°C° 0 mm 5 m/s 744 mmHg 60%
    13:00 +10°C° 0 mm 5 m/s 743 mmHg 57%
    14:00 +10°C° 0 mm 5 m/s 743 mmHg 55%
    15:00 +9°C° 0 mm 5 m/s 742 mmHg 58%
    16:00 +8°C° 0 mm 5 m/s 741 mmHg 62%
    17:00 +7°C° 0 mm 5 m/s 740 mmHg 65%
    18:00 +7°C° 0.7 mm 6 m/s 739 mmHg 72%
    19:00 +5°C° 0.7 mm 7 m/s 738 mmHg 78%
    20:00 +5°C° 0.7 mm 8 m/s 737 mmHg 85%
    21:00 +5°C° 1.4 mm 8 m/s 735 mmHg 85%
    22:00 +4°C° 1.4 mm 8 m/s 734 mmHg 86%
    23:00 +3°C° 1.4 mm 9 m/s 732 mmHg 87%

    Mâine, 27 Septembrie, Joi

    Timp Temperatura Precipitaţii Vânt Presiune Umiditate
    00:00 +4°C° 0.8 mm 8 m/s 731 mmHg 87%
    01:00 +5°C° 0.8 mm 8 m/s 730 mmHg 87%
    02:00 +5°C° 0.8 mm 8 m/s 729 mmHg 88%
    03:00 +5°C° 0.9 mm 8 m/s 729 mmHg 87%
    04:00 +6°C° 0.9 mm 7 m/s 729 mmHg 87%
    05:00 +6°C° 0.9 mm 7 m/s 728 mmHg 87%
    06:00 +6°C° 0.1 mm 7 m/s 729 mmHg 83%
    07:00 +6°C° 0.1 mm 7 m/s 729 mmHg 80%
    08:00 +6°C° 0.1 mm 7 m/s 729 mmHg 77%
    09:00 +6°C° 0.1 mm 7 m/s 730 mmHg 73%
    10:00 +7°C° 0.1 mm 8 m/s 730 mmHg 69%
    11:00 +7°C° 0.1 mm 8 m/s 730 mmHg 64%
    12:00 +7°C° 0.2 mm 8 m/s 731 mmHg 63%
    13:00 +9°C° 0.2 mm 8 m/s 731 mmHg 61%
    14:00 +9°C° 0.2 mm 8 m/s 732 mmHg 59%
    15:00 +8°C° 0 mm 7 m/s 732 mmHg 62%
    16:00 +7°C° 0 mm 6 m/s 732 mmHg 64%
    17:00 +7°C° 0 mm 5 m/s 733 mmHg 67%
    18:00 +6°C° 0 mm 5 m/s 733 mmHg 69%
    19:00 +6°C° 0 mm 4 m/s 733 mmHg 71%
    20:00 +5°C° 0 mm 4 m/s 734 mmHg 73%
    21:00 +5°C° 0 mm 4 m/s 734 mmHg 74%
    22:00 +5°C° 0 mm 4 m/s 734 mmHg 75%
    23:00 +5°C° 0 mm 4 m/s 734 mmHg 77%

    Poimâine, 28 Septembrie, Vineri

    Timp Temperatura Precipitaţii Vânt Presiune Umiditate
    00:00 +5°C° 0 mm 4 m/s 733 mmHg 77%
    01:00 +5°C° 0 mm 4 m/s 733 mmHg 77%
    02:00 +5°C° 0 mm 4 m/s 732 mmHg 77%
    03:00 +6°C° 0.8 mm 4 m/s 731 mmHg 81%
    04:00 +6°C° 0.8 mm 5 m/s 729 mmHg 85%
    05:00 +7°C° 0.8 mm 6 m/s 728 mmHg 89%
    06:00 +8°C° 1.5 mm 7 m/s 727 mmHg 89%
    07:00 +10°C° 1.5 mm 7 m/s 726 mmHg 88%
    08:00 +11°C° 1.5 mm 7 m/s 725 mmHg 88%
    09:00 +11°C° 1.4 mm 7 m/s 725 mmHg 86%
    10:00 +11°C° 1.4 mm 7 m/s 725 mmHg 83%
    11:00 +11°C° 1.4 mm 7 m/s 725 mmHg 80%
    12:00 +9°C° 0.3 mm 7 m/s 726 mmHg 79%
    13:00 +8°C° 0.3 mm 7 m/s 727 mmHg 79%
    14:00 +6°C° 0.3 mm 8 m/s 728 mmHg 78%
    15:00 +5°C° 0.1 mm 7 m/s 730 mmHg 78%
    16:00 +4°C° 0.1 mm 6 m/s 731 mmHg 78%
    17:00 +3°C° 0.1 mm 5 m/s 733 mmHg 77%
    18:00 +3°C° 0 mm 5 m/s 734 mmHg 78%
    19:00 +3°C° 0 mm 4 m/s 735 mmHg 79%
    20:00 +2°C° 0 mm 3 m/s 736 mmHg 80%
    21:00 +2°C° 0 mm 3 m/s 736 mmHg 81%
    22:00 +1°C° 0 mm 3 m/s 737 mmHg 81%
    23:00 +1°C° 0 mm 3 m/s 737 mmHg 81%

    29 Septembrie, Sâmbătă

    Timp Temperatura Precipitaţii Vânt Presiune Umiditate
    00:00 +1°C° 0 mm 3 m/s 738 mmHg 82%
    01:00 +1°C° 0 mm 3 m/s 738 mmHg 83%
    02:00 0°C° 0 mm 3 m/s 739 mmHg 84%
    03:00 0°C° 0 mm 3 m/s 739 mmHg 84%
    04:00 0°C° 0 mm 3 m/s 740 mmHg 85%
    05:00 0°C° 0 mm 3 m/s 740 mmHg 85%
    06:00 +1°C° 0 mm 3 m/s 741 mmHg 79%
    07:00 +2°C° 0 mm 3 m/s 741 mmHg 74%
    08:00 +3°C° 0 mm 4 m/s 742 mmHg 68%
    09:00 +4°C° 0 mm 4 m/s 742 mmHg 64%
    10:00 +5°C° 0 mm 4 m/s 743 mmHg 59%
    11:00 +6°C° 0 mm 4 m/s 743 mmHg 55%
    12:00 +6°C° 0 mm 4 m/s 744 mmHg 54%
    13:00 +6°C° 0 mm 4 m/s 744 mmHg 53%
    14:00 +6°C° 0 mm 4 m/s 744 mmHg 52%
    15:00 +5°C° 0 mm 3 m/s 744 mmHg 57%
    16:00 +4°C° 0 mm 3 m/s 744 mmHg 62%
    17:00 +4°C° 0 mm 2 m/s 745 mmHg 67%
    18:00 +3°C° 0 mm 2 m/s 745 mmHg 70%
    19:00 +3°C° 0 mm 1 m/s 746 mmHg 74%
    20:00 +2°C° 0 mm 1 m/s 746 mmHg 78%
    21:00 +2°C° 0 mm 1 m/s 746 mmHg 79%
    22:00 +2°C° 0 mm 1 m/s 747 mmHg 80%
    23:00 +2°C° 0 mm 1 m/s 747 mmHg 82%

    30 Septembrie, Duminică

    Timp Temperatura Precipitaţii Vânt Presiune Umiditate
    00:00 +1°C° 0 mm 1 m/s 747 mmHg 84%
    01:00 +1°C° 0 mm 1 m/s 747 mmHg 86%
    02:00 +1°C° 0 mm 1 m/s 747 mmHg 88%
    03:00 -1°C° 0 mm 2 m/s 747 mmHg 90%
    04:00 -1°C° 0 mm 2 m/s 747 mmHg 91%
    05:00 -1°C° 0 mm 2 m/s 747 mmHg 93%
    06:00 +1°C° 0 mm 2 m/s 747 mmHg 88%
    07:00 +2°C° 0 mm 2 m/s 747 mmHg 83%
    08:00 +2°C° 0 mm 3 m/s 747 mmHg 79%
    09:00 +4°C° 0 mm 3 m/s 746 mmHg 72%
    10:00 +5°C° 0 mm 4 m/s 746 mmHg 65%
    11:00 +7°C° 0 mm 4 m/s 746 mmHg 58%
    12:00 +7°C° 0 mm 4 m/s 746 mmHg 58%
    13:00 +8°C° 0 mm 5 m/s 745 mmHg 57%
    14:00 +8°C° 0 mm 5 m/s 745 mmHg 57%
    15:00 +7°C° 0 mm 5 m/s 745 mmHg 61%
    16:00 +7°C° 0 mm 4 m/s 744 mmHg 65%
    17:00 +6°C° 0 mm 4 m/s 744 mmHg 69%
    18:00 +6°C° 0 mm 4 m/s 744 mmHg 72%
    19:00 +6°C° 0 mm 4 m/s 744 mmHg 75%
    20:00 +6°C° 0 mm 4 m/s 744 mmHg 78%
    21:00 +6°C° 0 mm 4 m/s 744 mmHg 77%
    22:00 +6°C° 0 mm 4 m/s 744 mmHg 77%
    23:00 +6°C° 0 mm 4 m/s 743 mmHg 77%

    1 Octombrie, Luni

    Timp Temperatura Precipitaţii Vânt Presiune Umiditate
    00:00 +6°C° 0 mm 4 m/s 743 mmHg 78%
    01:00 +5°C° 0 mm 4 m/s 743 mmHg 78%
    02:00 +5°C° 0 mm 4 m/s 743 mmHg 78%
    03:00 +5°C° 0 mm 4 m/s 743 mmHg 80%
    04:00 +5°C° 0 mm 4 m/s 743 mmHg 81%
    05:00 +5°C° 0 mm 4 m/s 743 mmHg 82%
    06:00 +5°C° 0 mm 4 m/s 743 mmHg 81%
    07:00 +6°C° 0 mm 4 m/s 743 mmHg 79%
    08:00 +6°C° 0 mm 4 m/s 743 mmHg 78%
    09:00 +8°C° 0 mm 4 m/s 743 mmHg 73%
    10:00 +9°C° 0 mm 5 m/s 743 mmHg 68%
    11:00 +10°C° 0 mm 5 m/s 743 mmHg 63%
    12:00 +12°C° 0 mm 5 m/s 743 mmHg 61%
    13:00 +12°C° 0 mm 4 m/s 743 mmHg 59%
    14:00 +12°C° 0 mm 4 m/s 743 mmHg 57%
    15:00 +11°C° 0 mm 4 m/s 743 mmHg 63%
    16:00 +10°C° 0 mm 3 m/s 743 mmHg 69%
    17:00 +9°C° 0 mm 2 m/s 743 mmHg 74%
    18:00 +8°C° 0 mm 2 m/s 743 mmHg 77%
    19:00 +7°C° 0 mm 2 m/s 743 mmHg 80%
    20:00 +6°C° 0 mm 2 m/s 743 mmHg 82%
    21:00 +6°C° 0 mm 2 m/s 743 mmHg 83%
    22:00 +5°C° 0 mm 2 m/s 743 mmHg 84%
    23:00 +5°C° 0 mm 2 m/s 743 mmHg 85%
    Arată mai mult